| time (UTC) | temp C | wind direction | speed KPH | gust KPH | rain 1hr cm | rain 24hr cm | rain mn cm | humidity % | barometer mb |
| 20260505070507 | 13 | 51 | 29.0 | 46.7 | 0.00 | 0.00 | 0.00 | 42 | 1006.3 |
| 20260505070020 | 13 | 44 | 22.5 | 37.0 | 0.00 | 0.00 | 0.00 | 42 | 1006.2 |
| 20260505065507 | 13 | 22 | 24.1 | 38.6 | 0.00 | 0.00 | 0.00 | 42 | 1006.3 |
| 20260505065006 | 14 | 57 | 24.1 | 41.8 | 0.00 | 0.00 | 0.00 | 43 | 1006.2 |
| 20260505064526 | 14 | 36 | 20.9 | 41.8 | 0.00 | 0.00 | 0.00 | 42 | 1006.1 |
| 20260505064006 | 15 | 50 | 25.7 | 41.8 | 0.00 | 0.00 | 0.00 | 41 | 1006.1 |
| 20260505063509 | 15 | 42 | 20.9 | 38.6 | 0.00 | 0.00 | 0.00 | 40 | 1006.1 |
| 20260505063010 | 15 | 46 | 22.5 | 43.5 | 0.00 | 0.00 | 0.00 | 40 | 1005.8 |
| 20260505062503 | 16 | 26 | 27.4 | 43.5 | 0.00 | 0.00 | 0.00 | 39 | 1005.7 |
| 20260505062010 | 16 | 60 | 32.2 | 45.1 | 0.00 | 0.00 | 0.00 | 39 | 1005.6 |
| 20260505061523 | 16 | 56 | 27.4 | 45.1 | 0.00 | 0.00 | 0.00 | 39 | 1005.4 |
| 20260505061006 | 16 | 11 | 19.3 | 37.0 | 0.00 | 0.00 | 0.00 | 40 | 1005.4 |
| 20260505060508 | 16 | 38 | 19.3 | 35.4 | 0.00 | 0.00 | 0.00 | 39 | 1005.3 |
| 20260505060024 | 16 | 38 | 19.3 | 38.6 | 0.00 | 0.00 | 0.00 | 39 | 1005.1 |
| 20260505055510 | 16 | 57 | 25.7 | 43.5 | 0.00 | 0.00 | 0.00 | 39 | 1005.1 |
| 20260505055013 | 16 | 67 | 14.5 | 43.5 | 0.00 | 0.00 | 0.00 | 39 | 1005.0 |
| 20260505054524 | 16 | 34 | 16.1 | 40.2 | 0.00 | 0.00 | 0.00 | 39 | 1005.1 |
| 20260505054014 | 17 | 42 | 20.9 | 41.8 | 0.00 | 0.00 | 0.00 | 39 | 1004.9 |
| 20260505053504 | 17 | 52 | 25.7 | 41.8 | 0.00 | 0.00 | 0.00 | 38 | 1004.8 |
| 20260505053026 | 17 | 53 | 22.5 | 35.4 | 0.00 | 0.00 | 0.00 | 39 | 1004.8 |
| 20260505052504 | 17 | 34 | 19.3 | 35.4 | 0.00 | 0.00 | 0.00 | 39 | 1004.7 |
| 20260505052009 | 17 | 44 | 16.1 | 32.2 | 0.00 | 0.00 | 0.00 | 39 | 1004.6 |
| 20260505051532 | 17 | 65 | 14.5 | 40.2 | 0.00 | 0.00 | 0.00 | 39 | 1004.4 |
| 20260505051009 | 17 | 51 | 16.1 | 40.2 | 0.00 | 0.00 | 0.00 | 38 | 1004.3 |
| 20260505050507 | 17 | 69 | 19.3 | 38.6 | 0.00 | 0.00 | 0.00 | 38 | 1004.3 |
| 20260505041523 | 19 | 70 | 25.7 | 38.6 | 0.00 | 0.00 | 0.00 | 40 | 1003.3 |
| 20260505041009 | 19 | 71 | 19.3 | 38.6 | 0.00 | 0.00 | 0.00 | 40 | 1003.3 |
| 20260505040512 | 19 | 51 | 19.3 | 32.2 | 0.00 | 0.00 | 0.00 | 41 | 1003.3 |
| 20260505040025 | 19 | 38 | 20.9 | 32.2 | 0.00 | 0.00 | 0.00 | 42 | 1003.3 |
| 20260505035515 | 19 | 54 | 20.9 | 43.5 | 0.00 | 0.00 | 0.00 | 42 | 1003.2 |
| 20260505035010 | 20 | 44 | 20.9 | 43.5 | 0.00 | 0.00 | 0.00 | 43 | 1003.3 |
| 20260505034528 | 20 | 59 | 24.1 | 38.6 | 0.00 | 0.00 | 0.00 | 44 | 1003.2 |
| 20260505034006 | 20 | 41 | 20.9 | 38.6 | 0.00 | 0.00 | 0.00 | 44 | 1003.3 |
| 20260505033505 | 20 | 42 | 20.9 | 38.6 | 0.00 | 0.00 | 0.00 | 43 | 1003.3 |
| 20260505033016 | 20 | 10 | 25.7 | 45.1 | 0.00 | 0.00 | 0.00 | 42 | 1003.1 |
| 20260505032508 | 21 | 50 | 25.7 | 45.1 | 0.00 | 0.00 | 0.00 | 41 | 1002.9 |
| 20260505032006 | 21 | 38 | 25.7 | 46.7 | 0.00 | 0.00 | 0.00 | 40 | 1002.9 |
| 20260505031528 | 21 | 54 | 20.9 | 46.7 | 0.00 | 0.00 | 0.00 | 38 | 1003.1 |
| 20260505031016 | 21 | 24 | 24.1 | 37.0 | 0.00 | 0.00 | 0.00 | 38 | 1003.1 |
| 20260505030511 | 22 | 55 | 20.9 | 33.8 | 0.00 | 0.00 | 0.00 | 38 | 1003.0 |
| 20260505030025 | 22 | 360 | 12.9 | 24.1 | 0.00 | 0.00 | 0.00 | 39 | 1002.8 |
| 20260505025508 | 22 | 36 | 9.7 | 17.7 | 0.00 | 0.00 | 0.00 | 41 | 1002.7 |
| 20260505025009 | 22 | 48 | 8.0 | 16.1 | 0.00 | 0.00 | 0.00 | 41 | 1002.4 |
| 20260505024510 | 22 | 31 | 8.0 | 19.3 | 0.00 | 0.00 | 0.00 | 41 | 1002.4 |
| 20260505024003 | 22 | 31 | 9.7 | 19.3 | 0.00 | 0.00 | 0.00 | 41 | 1002.4 |
| 20260505023507 | 22 | 18 | 6.4 | 16.1 | 0.00 | 0.00 | 0.00 | 41 | 1002.2 |
| 20260505023021 | 22 | 56 | 4.8 | 14.5 | 0.00 | 0.00 | 0.00 | 41 | 1002.2 |
| 20260505022507 | 22 | 98 | 3.2 | 20.9 | 0.00 | 0.00 | 0.00 | 41 | 1002.2 |
| 20260505022007 | 22 | 53 | 9.7 | 20.9 | 0.00 | 0.00 | 0.00 | 42 | 1002.1 |
| 20260505021527 | 22 | 75 | 6.4 | 14.5 | 0.00 | 0.00 | 0.00 | 42 | 1002.0 |
| 20260505021009 | 22 | 63 | 1.6 | 9.7 | 0.00 | 0.00 | 0.00 | 43 | 1002.1 |
| 20260505020507 | 22 | 103 | 0.0 | 8.0 | 0.00 | 0.00 | 0.00 | 45 | 1002.0 |
| 20260505020033 | 22 | 152 | 3.2 | 12.9 | 0.00 | 0.00 | 0.00 | 41 | 1002.0 |
| 20260505015511 | 23 | 86 | 1.6 | 12.9 | 0.00 | 0.00 | 0.00 | 40 | 1001.9 |
| 20260505015009 | 23 | 82 | 3.2 | 9.7 | 0.00 | 0.00 | 0.00 | 39 | 1001.7 |
| 20260505014514 | 23 | 69 | 1.6 | 14.5 | 0.00 | 0.00 | 0.00 | 40 | 1001.8 |
| 20260505014007 | 23 | 111 | 1.6 | 19.3 | 0.00 | 0.00 | 0.00 | 40 | 1001.8 |
| 20260505013507 | 23 | 144 | 8.0 | 25.7 | 0.00 | 0.00 | 0.00 | 42 | 1001.9 |
| 20260505013028 | 23 | 141 | 14.5 | 37.0 | 0.00 | 0.00 | 0.00 | 40 | 1001.7 |
| 20260505012508 | 24 | 159 | 20.9 | 35.4 | 0.00 | 0.00 | 0.00 | 41 | 1001.8 |
| 20260505012007 | 26 | 180 | 12.9 | 20.9 | 0.00 | 0.00 | 0.00 | 33 | 1001.7 |
| 20260505011534 | 26 | 205 | 3.2 | 8.0 | 0.00 | 0.00 | 0.00 | 27 | 1001.5 |
| 20260505011009 | 26 | 63 | 3.2 | 8.0 | 0.00 | 0.00 | 0.00 | 26 | 1001.3 |
| 20260505010511 | 27 | 337 | 4.8 | 8.0 | 0.00 | 0.00 | 0.00 | 26 | 1001.2 |
| 20260505010045 | 27 | 288 | 3.2 | 12.9 | 0.00 | 0.00 | 0.00 | 25 | 1001.2 |
| 20260505005509 | 27 | 305 | 1.6 | 29.0 | 0.00 | 0.00 | 0.00 | 24 | 1001.2 |
| 20260505005007 | 27 | 321 | 8.0 | 32.2 | 0.00 | 0.00 | 0.00 | 24 | 1001.1 |
| 20260505004517 | 27 | 324 | 14.5 | 37.0 | 0.00 | 0.00 | 0.00 | 25 | 1001.0 |
| 20260505004009 | 27 | 336 | 17.7 | 37.0 | 0.00 | 0.00 | 0.00 | 25 | 1000.9 |
| 20260505003507 | 27 | 322 | 14.5 | 29.0 | 0.00 | 0.00 | 0.00 | 25 | 1001.1 |
| 20260505003022 | 27 | 138 | 0.0 | 8.0 | 0.00 | 0.00 | 0.00 | 24 | 1001.0 |
| 20260505002511 | 27 | 100 | 3.2 | 9.7 | 0.00 | 0.00 | 0.00 | 24 | 1000.9 |
| 20260505002012 | 27 | 150 | 3.2 | 9.7 | 0.00 | 0.00 | 0.00 | 24 | 1000.9 |
| 20260505001526 | 27 | 139 | 4.8 | 14.5 | 0.00 | 0.00 | 0.00 | 24 | 1000.8 |
| 20260505001009 | 27 | 134 | 1.6 | 14.5 | 0.00 | 0.00 | 0.00 | 24 | 1000.8 |
| 20260505000509 | 27 | 99 | 3.2 | 12.9 | 0.00 | 0.00 | 0.00 | 24 | 1000.6 |
| 20260505000023 | 27 | 148 | 3.2 | 12.9 | 0.00 | 0.00 | 0.00 | 25 | 1000.6 |
| 20260504235507 | 27 | 109 | 3.2 | 14.5 | 0.00 | 0.00 | 0.00 | 25 | 1000.8 |
| 20260504235007 | 28 | 133 | 8.0 | 19.3 | 0.00 | 0.00 | 0.00 | 24 | 1000.7 |
| 20260504234520 | 28 | 134 | 4.8 | 19.3 | 0.00 | 0.00 | 0.00 | 25 | 1000.8 |
| 20260504234007 | 28 | 134 | 6.4 | 17.7 | 0.00 | 0.00 | 0.00 | 24 | 1000.8 |
| 20260504233503 | 28 | 94 | 9.7 | 17.7 | 0.00 | 0.00 | 0.00 | 24 | 1000.8 |
| 20260504233003 | 28 | 138 | 9.7 | 17.7 | 0.00 | 0.00 | 0.00 | 24 | 1000.8 |
| 20260504232503 | 28 | 141 | 8.0 | 16.1 | 0.00 | 0.00 | 0.00 | 25 | 1000.8 |
| 20260504232008 | 28 | 166 | 8.0 | 19.3 | 0.00 | 0.00 | 0.00 | 24 | 1000.8 |
| 20260504231507 | 28 | 110 | 11.3 | 19.3 | 0.00 | 0.00 | 0.00 | 24 | 1000.8 |
| 20260504231004 | 28 | 127 | 12.9 | 17.7 | 0.00 | 0.00 | 0.00 | 24 | 1000.8 |
| 20260504230508 | 28 | 146 | 6.4 | 17.7 | 0.00 | 0.00 | 0.00 | 24 | 1000.8 |
| 20260504230020 | 28 | 138 | 11.3 | 17.7 | 0.00 | 0.00 | 0.00 | 24 | 1000.9 |
| 20260504225505 | 28 | 106 | 4.8 | 17.7 | 0.00 | 0.00 | 0.00 | 24 | 1000.8 |
| 20260504225006 | 28 | 130 | 4.8 | 16.1 | 0.00 | 0.00 | 0.00 | 25 | 1000.8 |
| 20260504224524 | 29 | 137 | 9.7 | 16.1 | 0.00 | 0.00 | 0.00 | 24 | 1000.8 |
| 20260504224003 | 29 | 136 | 8.0 | 17.7 | 0.00 | 0.00 | 0.00 | 24 | 1000.9 |
| 20260504223503 | 29 | 135 | 11.3 | 17.7 | 0.00 | 0.00 | 0.00 | 24 | 1001.0 |
| 20260504223011 | 29 | 132 | 3.2 | 14.5 | 0.00 | 0.00 | 0.00 | 21 | 1000.9 |
| 20260504222504 | 30 | 153 | 4.8 | 16.1 | 0.00 | 0.00 | 0.00 | 20 | 1000.8 |
| 20260504222003 | 30 | 40 | 6.4 | 16.1 | 0.00 | 0.00 | 0.00 | 19 | 1000.7 |
| 20260504221520 | 30 | 43 | 0.0 | 6.4 | 0.00 | 0.00 | 0.00 | 20 | 1000.7 |
| 20260504221006 | 30 | 67 | 3.2 | 9.7 | 0.00 | 0.00 | 0.00 | 19 | 1000.8 |
| 20260504220509 | 30 | 55 | 3.2 | 16.1 | 0.00 | 0.00 | 0.00 | 20 | 1000.8 |
| 20260504220018 | 30 | 57 | 4.8 | 16.1 | 0.00 | 0.00 | 0.00 | 19 | 1000.7 |
| 20260504215512 | 30 | 103 | 3.2 | 16.1 | 0.00 | 0.00 | 0.00 | 19 | 1000.8 |
| 20260504215011 | 30 | 90 | 6.4 | 16.1 | 0.00 | 0.00 | 0.00 | 20 | 1000.8 |
| 20260504214505 | 30 | 76 | 4.8 | 24.1 | 0.00 | 0.00 | 0.00 | 20 | 1000.9 |
| 20260504214002 | 30 | 143 | 6.4 | 24.1 | 0.00 | 0.00 | 0.00 | 20 | 1000.9 |
| 20260504213503 | 30 | 80 | 4.8 | 14.5 | 0.00 | 0.00 | 0.00 | 21 | 1000.9 |
| 20260504213006 | 29 | 113 | 4.8 | 14.5 | 0.00 | 0.00 | 0.00 | 22 | 1001.1 |
| 20260504212504 | 29 | 100 | 4.8 | 14.5 | 0.00 | 0.00 | 0.00 | 20 | 1001.2 |
| 20260504212009 | 29 | 109 | 3.2 | 14.5 | 0.00 | 0.00 | 0.00 | 20 | 1001.3 |
| 20260504211513 | 29 | 60 | 4.8 | 12.9 | 0.00 | 0.00 | 0.00 | 21 | 1001.3 |
| 20260504211007 | 29 | 77 | 1.6 | 12.9 | 0.00 | 0.00 | 0.00 | 21 | 1001.4 |
| 20260504210509 | 29 | 134 | 6.4 | 16.1 | 0.00 | 0.00 | 0.00 | 19 | 1001.4 |
| 20260504210023 | 30 | 134 | 6.4 | 22.5 | 0.00 | 0.00 | 0.00 | 19 | 1001.5 |
| 20260504205507 | 30 | 61 | 6.4 | 22.5 | 0.00 | 0.00 | 0.00 | 19 | 1001.6 |
| 20260504205008 | 30 | 118 | 4.8 | 19.3 | 0.00 | 0.00 | 0.00 | 21 | 1001.6 |
| 20260504204503 | 30 | 126 | 9.7 | 19.3 | 0.00 | 0.00 | 0.00 | 20 | 1001.7 |
| 20260504204005 | 30 | 134 | 4.8 | 19.3 | 0.00 | 0.00 | 0.00 | 19 | 1001.7 |
| 20260504203506 | 30 | 118 | 4.8 | 19.3 | 0.00 | 0.00 | 0.00 | 20 | 1001.7 |
| 20260504203012 | 30 | 84 | 6.4 | 19.3 | 0.00 | 0.00 | 0.00 | 21 | 1001.9 |
| 20260504202506 | 30 | 37 | 6.4 | 24.1 | 0.00 | 0.00 | 0.00 | 19 | 1002.0 |
| 20260504202007 | 30 | 92 | 1.6 | 24.1 | 0.00 | 0.00 | 0.00 | 20 | 1002.2 |
| 20260504201516 | 30 | 146 | 14.5 | 20.9 | 0.00 | 0.00 | 0.00 | 19 | 1002.3 |
| 20260504201008 | 30 | 76 | 1.6 | 12.9 | 0.00 | 0.00 | 0.00 | 20 | 1002.2 |
| 20260504200511 | 30 | 37 | 4.8 | 14.5 | 0.00 | 0.00 | 0.00 | 18 | 1002.4 |
| 20260504200023 | 30 | 105 | 4.8 | 16.1 | 0.00 | 0.00 | 0.00 | 22 | 1002.4 |
| 20260504195507 | 30 | 128 | 8.0 | 16.1 | 0.00 | 0.00 | 0.00 | 20 | 1002.5 |
| 20260504195004 | 30 | 49 | 3.2 | 17.7 | 0.00 | 0.00 | 0.00 | 22 | 1002.4 |
| 20260504194507 | 30 | 121 | 6.4 | 14.5 | 0.00 | 0.00 | 0.00 | 20 | 1002.5 |
| 20260504194006 | 30 | 66 | 6.4 | 14.5 | 0.00 | 0.00 | 0.00 | 22 | 1002.7 |
| 20260504193506 | 30 | 57 | 4.8 | 16.1 | 0.00 | 0.00 | 0.00 | 21 | 1002.7 |
| 20260504193014 | 30 | 100 | 6.4 | 17.7 | 0.00 | 0.00 | 0.00 | 20 | 1002.9 |
| 20260504192506 | 30 | 80 | 6.4 | 17.7 | 0.00 | 0.00 | 0.00 | 22 | 1002.9 |
| 20260504192007 | 30 | 65 | 8.0 | 17.7 | 0.00 | 0.00 | 0.00 | 20 | 1003.1 |
| 20260504191530 | 30 | 86 | 3.2 | 17.7 | 0.00 | 0.00 | 0.00 | 23 | 1003.1 |
| 20260504191008 | 29 | 36 | 1.6 | 9.7 | 0.00 | 0.00 | 0.00 | 22 | 1003.1 |
| 20260504190507 | 29 | 89 | 3.2 | 17.7 | 0.00 | 0.00 | 0.00 | 24 | 1003.1 |
| 20260504190026 | 29 | 133 | 3.2 | 24.1 | 0.00 | 0.00 | 0.00 | 21 | 1003.3 |
| 20260504185503 | 29 | 76 | 6.4 | 24.1 | 0.00 | 0.00 | 0.00 | 21 | 1003.4 |
| 20260504185004 | 29 | 347 | 9.7 | 17.7 | 0.00 | 0.00 | 0.00 | 20 | 1003.3 |
| 20260504184514 | 29 | 30 | 9.7 | 17.7 | 0.00 | 0.00 | 0.00 | 22 | 1003.4 |
| 20260504184004 | 29 | 53 | 8.0 | 19.3 | 0.00 | 0.00 | 0.00 | 22 | 1003.4 |
| 20260504183507 | 29 | 51 | 9.7 | 19.3 | 0.00 | 0.00 | 0.00 | 21 | 1003.4 |
| 20260504183016 | 29 | 73 | 6.4 | 19.3 | 0.00 | 0.00 | 0.00 | 23 | 1003.4 |
| 20260504182508 | 29 | 65 | 8.0 | 19.3 | 0.00 | 0.00 | 0.00 | 22 | 1003.5 |
| 20260504182011 | 29 | 67 | 9.7 | 25.7 | 0.00 | 0.00 | 0.00 | 22 | 1003.5 |
| 20260504181524 | 29 | 58 | 12.9 | 27.4 | 0.00 | 0.00 | 0.00 | 21 | 1003.5 |
| 20260504181008 | 29 | 54 | 11.3 | 27.4 | 0.00 | 0.00 | 0.00 | 22 | 1003.5 |
| 20260504180510 | 29 | 47 | 9.7 | 24.1 | 0.00 | 0.00 | 0.00 | 23 | 1003.6 |
| 20260504180028 | 28 | 43 | 11.3 | 25.7 | 0.00 | 0.00 | 0.00 | 24 | 1003.7 |
| 20260504175504 | 28 | 50 | 14.5 | 25.7 | 0.00 | 0.00 | 0.00 | 24 | 1003.9 |
| 20260504175007 | 28 | 43 | 11.3 | 19.3 | 0.00 | 0.00 | 0.00 | 24 | 1003.9 |
| 20260504174514 | 28 | 65 | 8.0 | 22.5 | 0.00 | 0.00 | 0.00 | 25 | 1003.9 |
| 20260504174004 | 28 | 43 | 11.3 | 22.5 | 0.00 | 0.00 | 0.00 | 23 | 1004.0 |
| 20260504173507 | 28 | 46 | 11.3 | 20.9 | 0.00 | 0.00 | 0.00 | 25 | 1004.0 |
| 20260504173019 | 28 | 57 | 6.4 | 20.9 | 0.00 | 0.00 | 0.00 | 28 | 1004.1 |
| 20260504172508 | 28 | 67 | 9.7 | 14.5 | 0.00 | 0.00 | 0.00 | 27 | 1004.1 |
| 20260504172010 | 27 | 76 | 4.8 | 14.5 | 0.00 | 0.00 | 0.00 | 32 | 1004.1 |
| 20260504171531 | 27 | 35 | 8.0 | 16.1 | 0.00 | 0.00 | 0.00 | 29 | 1004.2 |
| 20260504171009 | 27 | 28 | 8.0 | 16.1 | 0.00 | 0.00 | 0.00 | 28 | 1004.2 |
| 20260504170517 | 27 | 69 | 8.0 | 14.5 | 0.00 | 0.00 | 0.00 | 30 | 1004.3 |
| 20260504151009 | 23 | 5 | 4.8 | 14.5 | 0.00 | 0.00 | 0.00 | 33 | 1003.8 |
| 20260504150508 | 22 | 287 | 11.3 | 16.1 | 0.00 | 0.00 | 0.00 | 34 | 1004.0 |
| 20260504141008 | 17 | 246 | 4.8 | 11.3 | 0.00 | 0.00 | 0.00 | 43 | 1003.8 |
| 20260504140502 | 17 | 279 | 1.6 | 11.3 | 0.00 | 0.00 | 0.00 | 43 | 1003.8 |
| 20260504130511 | 14 | 255 | 4.8 | 12.9 | 0.00 | 0.00 | 0.00 | 52 | 1003.7 |
| 20260504110506 | 14 | 284 | 4.8 | 9.7 | 0.00 | 0.00 | 0.00 | 52 | 1003.4 |
| 20260504100505 | 16 | 182 | 6.4 | 19.3 | 0.00 | 0.00 | 0.00 | 47 | 1003.4 |
| 20260504082007 | 17 | 215 | 9.7 | 19.3 | 0.00 | 0.00 | 0.00 | 43 | 1004.0 |
| 20260504081517 | 17 | 210 | 6.4 | 16.1 | 0.00 | 0.00 | 0.00 | 43 | 1004.1 |
| 20260504081009 | 17 | 271 | 4.8 | 16.1 | 0.00 | 0.00 | 0.00 | 42 | 1004.1 |
| 20260504080507 | 17 | 195 | 4.8 | 16.1 | 0.00 | 0.00 | 0.00 | 42 | 1004.2 |